Moab, UT

1:04 AM MST on November 25, 2017 (GMT -0700)
Canyonlands

Weather History for KCNY - May, 2013

Change the Weather History Date:

Wednesday, May 8, 2013

  Actual Average Record
Temperature  
Mean Temperature 53 °F 60 °F  
Max Temperature 60 °F 75 °F 98 °F (1989)
Min Temperature 45 °F 45 °F 32 °F (1938)
Degree Days  
Heating Degree Days 12 6  
Month to date heating degree days 81 56  
Since 1 July heating degree days 6011 5481  
Cooling Degree Days 0 1  
Month to date cooling degree days 3 6  
Year to date cooling degree days 4 9  
Growing Degree Days 2 (Base 50)    
Moisture  
Dew Point 42 °F    
Average Humidity 65    
Maximum Humidity 89    
Minimum Humidity 40    
Precipitation  
Precipitation 0.23 in 0.02 in 0.65 in (1979)
Month to date precipitation 0.58 0.17  
Year to date precipitation 1.69 2.79  
Sea Level Pressure  
Sea Level Pressure 29.97 in    
Wind  
Wind Speed 7 mph (NW)    
Max Wind Speed 22 mph    
Max Gust Speed 25 mph    
Visibility 9 miles    
Events Rain    
T = Trace of Precipitation, MM = Missing Value Source: NWS Daily Summary

Daily Weather History Graph

Daily Weather History Graph

Search for Another Location

Airport or City:

Trip Planner

Search our weather history database for the weather conditions in past years. The results will help you decide how hot, cold, wet, or windy it might be!

Date:

Astronomy

May. 08, 2013 Rise Set
Actual Time 6:13 AM MDT 8:18 PM MDT
Civil Twilight 5:43 AM MDT 8:47 PM MDT
Nautical Twilight 5:08 AM MDT 9:23 PM MDT
Astronomical Twilight 4:29 AM MDT 10:02 PM MDT
Moon 5:22 AM MDT (5/8) 7:20 PM MDT (5/8)
Length of Visible Light 15h 03m
Length of Day
14h 04m
Waning Crescent, 2% of the Moon is Illuminated
May 8
Waning Crescent
May 9
New
May 17
First Quarter
May 24
Full
May 31
Last Quarter

Hourly Weather History & Observations

Time (MDT) Temp. Windchill Dew Point Humidity Pressure Visibility Wind Dir Wind Speed Gust Speed Precip Events Conditions
12:53 AM 48.0 °F - 44.1 °F 86% 29.90 in 9.0 mi NW 13.8 mph - 0.01 in Rain Light Rain
1:53 AM 48.0 °F - 43.0 °F 83% 29.90 in 10.0 mi NW 8.1 mph - 0.01 in   Overcast
2:53 AM 48.0 °F - 42.1 °F 80% 29.91 in 10.0 mi West 11.5 mph - 0.00 in   Overcast
3:53 AM 46.9 °F - 44.1 °F 90% 29.94 in 7.0 mi WSW 6.9 mph - 0.03 in Rain Rain
4:53 AM 46.0 °F 39.3 °F 44.1 °F 93% 29.92 in 10.0 mi NW 16.1 mph - 0.07 in   Overcast
5:53 AM 45.0 °F 37.9 °F 42.1 °F 90% 29.93 in 10.0 mi NNW 16.1 mph - 0.00 in Rain Light Rain
6:53 AM 45.0 °F 38.5 °F 41.0 °F 86% 29.97 in 3.0 mi NNW 13.8 mph - 0.06 in Rain Rain
7:01 AM 44.6 °F 36.9 °F 39.2 °F 81% 30.03 in 2.5 mi NNW 18.4 mph - 0.03 in Rain Rain
7:11 AM 44.6 °F 37.8 °F 39.2 °F 81% 30.03 in 5.0 mi North 15.0 mph - 0.04 in Rain Light Rain
7:53 AM 46.0 °F 42.5 °F 42.1 °F 86% 29.98 in 10.0 mi NNE 6.9 mph - 0.06 in   Overcast
8:53 AM 48.0 °F - 43.0 °F 83% 30.00 in 10.0 mi East 4.6 mph - N/A   Overcast
9:53 AM 48.0 °F - 42.1 °F 80% 30.01 in 10.0 mi ESE 6.9 mph - N/A   Overcast
10:53 AM 52.0 °F - 43.0 °F 71% 30.00 in 10.0 mi ESE 5.8 mph - N/A   Mostly Cloudy
11:42 AM 53.6 °F - 41.0 °F 62% 30.06 in 10.0 mi Variable 3.5 mph - N/A   Scattered Clouds
11:53 AM 54.0 °F - 42.1 °F 64% 30.00 in 10.0 mi ENE 4.6 mph - N/A   Partly Cloudy
12:53 PM 55.9 °F - 42.1 °F 60% 30.00 in 10.0 mi Variable 3.5 mph - N/A   Overcast
1:53 PM 57.9 °F - 42.1 °F 56% 29.99 in 10.0 mi Variable 4.6 mph - N/A   Partly Cloudy
2:43 PM 55.4 °F - 44.6 °F 67% 30.04 in 10.0 mi SSW 15.0 mph - N/A   Mostly Cloudy
2:53 PM 55.9 °F - 44.1 °F 64% 29.98 in 10.0 mi SSW 12.7 mph - N/A   Scattered Clouds
3:53 PM 57.9 °F - 42.1 °F 56% 29.96 in 10.0 mi Variable 5.8 mph - N/A   Clear
4:53 PM 59.0 °F - 39.9 °F 49% 29.95 in 10.0 mi SSW 3.5 mph - N/A   Clear
5:53 PM 59.0 °F - 36.0 °F 42% 29.95 in 10.0 mi WNW 3.5 mph - N/A   Clear
6:53 PM 59.0 °F - 37.0 °F 44% 29.95 in 10.0 mi NW 6.9 mph - N/A   Clear
7:53 PM 57.0 °F - 41.0 °F 55% 29.96 in 10.0 mi NW 4.6 mph - N/A   Clear
8:53 PM 55.0 °F - 46.9 °F 74% 29.96 in 10.0 mi NW 3.5 mph - N/A   Partly Cloudy
9:53 PM 55.9 °F - 45.0 °F 67% 29.98 in 10.0 mi Calm Calm - N/A   Overcast
10:53 PM 55.0 °F - 46.0 °F 72% 29.97 in 10.0 mi NNE 11.5 mph - N/A   Overcast
11:53 PM 53.1 °F - 46.0 °F 77% 29.97 in 10.0 mi NNE 5.8 mph - N/A   Overcast